Powrót do katalogu

INTELSAT 506

AktywnyŁącznośćGEO
NORAD 14077·PAYLOAD· XX

Wystrzelony May 19, 1983 z Cape Canaveral Space Force Station

Loading…

TLE

ŚwieżeSource: Space-Track

Epoka: Sep 14, 2026, 05:40 UTC

1 14077U 83047A   26257.23638230  .00000011  00000-0  00000-0 0  9992
2 14077  12.3626 333.0380 0037092 353.4867   5.1955  0.99157448124962

Śledź INTELSAT 506 w czasie rzeczywistym z AllMySat

Download on the App Store